NIMBUS 2 DEB, 40644

Orbit data source: Space-Track

NIMBUS 2 DEB, 40644 is space debris in SSO originally from a launch on Sun, 15 May 1966 UTC launched from the Air Force Western Test Range (AFWTR). Debris objects in space refer to the collection of defunct objects orbiting the Earth. Examples of debris include non-operational satellites, rocket bodies, and fragments generated from explosions, collisions, or faulty payload assembly.

Loading next visibility...
Identifier
40644, 1966-040BH
Orbit
SSO
Country
Flag of USUS
Related business
Manufacturer
Unknown
Mission
Spacecraft
Bus & Motor
Unknown
Mass
Unknown
Launch date (UTC)
1966-05-15 (60 years ago)
Launch vehicle
Unknown
Launch site
Air Force Western Test Range (AFWTR)
Object type
Payload
Rocket body
Debris
Shape & HBR
Unknown shape, 0.1 m
Radar Cross Section
Small (<0.1 m²)

Expand to show TLE details & history
Last TLE update: 2 weeks ago

TLE from 2 weeks ago
0 NIMBUS 2 DEB
1 40644U 66040BH  26145.60857726  .00001626  00000-0  27665-2 0  9996
2 40644 100.3417  13.0293 0048484 232.1520 127.5218 13.46361653540987
Epoch: 2026-05-25T14:36Z
TLE epoch observation values (Epoch: 2026-05-25T14:36:21.075Z)
Latitude
0.00002°
Longitude
-89.25244°
Altitude
1,110.587 km
Speed
7.286 km/s
True Right ascension
00h 52m 07s
True Declination
0° 00' 00"
Sunlit
Object was in daylight at epoch
Visualization orbit readout
Latitude
Unknown
Longitude
Unknown
Altitude
Unknown
Speed
Unknown
Apparent Right ascension
Unknown
Apparent Declination
Unknown
Sunlit
N/A
Visualization observer readout
Local Sidereal Time
06:09:24
Azimuth
Unknown
Elevation
Unknown
Doppler factor
Unknown
Orbital elements
Apogee altitude
1,119.19 km
Perigee altitude
1,046.84 km
Semi-major axis
7,461.152 km
Eccentricity
0.00485
Inclination
100.3417°
RAAN
13.0293°
Arg. of periapsis
232.152°
True anomaly
127.96082°
Mean anomaly
127.5218°
Eccentric anomaly
127.74147°
Mean motion
3.36771 °/min
Orbital period
106.9 mins
BSTAR
0.0027665
Loading maneuver chart data...
Computing Atmospheric mass density...
Loading historical data...
Loading historical data...
Loading historical data...
Loading historical data...
Loading historical data...
Loading historical data...
Loading historical data...

Documentation

Showing up to 5 results
|